This is the latest recevied weather packets stored in our database for station/object GJ7DNI-13. If no packets are shown the sender has not sent any weather packets the latest 10 day(s).
| Time | Temp. | Humidity | Pressure | Rain* | Wind** | Luminosity | Snow |
|---|---|---|---|---|---|---|---|
| 1777836900 | 14.44° C | 79% | 1009.4 hPa | 0 mm | - | 0 W/m² | - |
| 1777836600 | 14.44° C | 79% | 1009.3 hPa | 0 mm | - | 0 W/m² | - |
| 1777836300 | 14.44° C | 79% | 1009.2 hPa | 0 mm | - | 5 W/m² | - |
| 1777836000 | 14.44° C | 79% | 1009.2 hPa | 0 mm | - | 7 W/m² | - |
| 1777835701 | 14.44° C | 79% | 1009.1 hPa | 0 mm | - | 11 W/m² | - |
| 1777835400 | 14.44° C | 79% | 1009.1 hPa | 0 mm | - | 14 W/m² | - |
| 1777835101 | 15° C | 79% | 1009.2 hPa | 0 mm | - | 18 W/m² | - |
| 1777834800 | 15° C | 79% | 1009.1 hPa | 0 mm | - | 21 W/m² | - |
| 1777834501 | 15° C | 78% | 1009 hPa | 0 mm | - | 23 W/m² | - |
| 1777834201 | 15.56° C | 77% | 1009 hPa | 0 mm | - | 33 W/m² | - |
| 1777833901 | 15.56° C | 77% | 1009 hPa | 0 mm | - | 46 W/m² | - |
| 1777833601 | 15.56° C | 77% | 1008.9 hPa | 0 mm | - | 58 W/m² | - |
| 1777833301 | 15.56° C | 77% | 1008.9 hPa | 0 mm | - | 69 W/m² | - |
| 1777833001 | 15.56° C | 77% | 1008.8 hPa | 0 mm | - | 84 W/m² | - |
| 1777832701 | 15.56° C | 77% | 1008.8 hPa | 0 mm | - | 90 W/m² | - |
| 1777832401 | 15.56° C | 76% | 1008.8 hPa | 0 mm | - | 109 W/m² | - |
| 1777832101 | 15.56° C | 76% | 1008.9 hPa | 0 mm | - | 121 W/m² | - |
| 1777831801 | 16.11° C | 75% | 1008.8 hPa | 0 mm | - | 141 W/m² | - |
| 1777831501 | 16.67° C | 73% | 1008.8 hPa | 0 mm | - | 149 W/m² | - |
| 1777831200 | 17.22° C | 73% | 1008.7 hPa | 0 mm | - | 169 W/m² | - |
| 1777830900 | 17.22° C | 73% | 1008.7 hPa | 0 mm | - | 200 W/m² | - |
| 1777830601 | 17.22° C | 73% | 1008.6 hPa | 0 mm | - | 229 W/m² | - |
| 1777830301 | 17.22° C | 73% | 1008.6 hPa | 0 mm | - | 223 W/m² | - |
| 1777830001 | 16.67° C | 73% | 1008.7 hPa | 0 mm | - | 244 W/m² | - |
| 1777829701 | 16.67° C | 73% | 1008.7 hPa | 0 mm | - | 251 W/m² | - |
* Rain latest hour (hover to see other rain measurements)
** Current wind speed in m/s (hover to see current wind gust speed)